(444193) = 2005 SE71

Discovered at Mount Lemmon on 2005-09-30 by Mt. Lemmon Survey.

Orbit

Orbit type: Apollo
Potentially Hazardous Asteroid

Note: WebGL enabled browser required.

epoch2022-01-21.0
epoch JD2459600.5
perihelion date2021-05-28.54910
perihelion JD2459363.04910
argument of perihelion (°)78.30022
ascending node (°)39.10722
inclination (°)24.83255
eccentricity0.1943882
perihelion distance (AU)0.8615982
Tisserand w.r.t. Jupiter5.7
ΔV w.r.t. Earth (km/sec)10.2
semimajor axis (AU)1.0694955
mean anomaly (°)211.59687
mean daily motion (°/day)0.89111840
aphelion distance (AU)1.277
period (years)1.11
P-vector [x]-0.40320484
P-vector [y]0.58645849
P-vector [z]0.70249007
Q-vector [x]-0.87592891
Q-vector [y]-0.46955497
Q-vector [z]-0.11075499
absolute magnitude18.19
phase slope0.15
uncertainty0
referenceMPO 699871
observations used456
oppositions6
arc length (days)5379
first opposition used2005
last opposition used2020
residual rms (arc-secs)0.63
perturbers coarse indicatorM-v
perturbers precise indicator003Ek
first observation date used2005-09-30.0
last observation date used2020-06-22.0
computer namePan
JD of orbit computation2457270.007747
perihelion JD uncertainty (days)3.8928E-05
argument of perihelion uncertainty (°)1.7041E-05
ascending node uncertainty (°)7.7885E-06
inclination uncertainty (°)1.4295E-05
eccentricity uncertainty 7.3657E-08
perihelion distance uncertainty (AU)7.7467E-08
Minimum Orbit Intersection Distances (in AU)
for orbit epoch: 2459200.5, reference: E2021-B25
Mercury0.55272
Venus0.24941
Earth0.00256
Mars0.38577
Jupiter3.86499
Saturn8.21579
Uranus17.4071
Neptune28.7989

Observations

485 total observations over interval: 2005 09 30.46700 – 2020 06 22.189931
These data are available for download (format description).

Date (UT) J2000 RA J2000 Dec Magn Location Ref
2005 09 30.46700 07 47 14.32 +21 31 23.5 20.1 V G96 – Mt. Lemmon Survey MPS 144193
2005 09 30.47035 07 47 15.48 +21 31 29.9 20.0 V G96 – Mt. Lemmon Survey MPS 144193
2005 09 30.47373 07 47 16.67 +21 31 36.5 20.1 V G96 – Mt. Lemmon Survey MPS 144193
2005 09 30.47713 07 47 17.86 +21 31 43.2 19.8 V G96 – Mt. Lemmon Survey MPS 144193
2005 09 30.49655 07 47 24.68 +21 32 20.6 19.8 V G96 – Mt. Lemmon Survey MPS 144193
2005 09 30.49877 07 47 25.44 +21 32 24.8 19.7 V G96 – Mt. Lemmon Survey MPS 144193
2005 09 30.49988 07 47 25.87 +21 32 26.8 19.6 V G96 – Mt. Lemmon Survey MPS 144193
2005 10 01.10571 07 51 01.50 +21 51 30.4 18.9 R 118 – Astronomical and Geophysical Observatory, Modra MPS 144193
2005 10 01.10685 07 51 01.87 +21 51 33.0 18.5 R 118 – Astronomical and Geophysical Observatory, Modra MPS 144193
2005 10 01.11264 07 51 03.93 +21 51 43.5 18.9 R 118 – Astronomical and Geophysical Observatory, Modra MPS 144193
2005 10 01.43262 07 52 58.96 +22 01 48.9 19.2 R 651 – Grasslands Observatory, Tucson MPS 144193
2005 10 01.43742 07 53 00.64 +22 01 57.0 19.2 R 651 – Grasslands Observatory, Tucson MPS 144193
2005 10 01.46896 07 53 11.86 +22 02 56.3 19.3 V G96 – Mt. Lemmon Survey MPS 144193
2005 10 01.47455 07 53 13.84 +22 03 06.9 19.4 V G96 – Mt. Lemmon Survey MPS 144193
2005 10 01.48017 07 53 15.86 +22 03 17.5 19.4 V G96 – Mt. Lemmon Survey MPS 144193
2005 10 01.48582 07 53 17.84 +22 03 28.1 19.4 V G96 – Mt. Lemmon Survey MPS 144193
2005 10 03.47639 08 05 23.21 +23 04 05.7 19.9 V 291 – LPL/Spacewatch II MPS 144193
2005 10 03.48053 08 05 24.70 +23 04 13.1 19.9 V 291 – LPL/Spacewatch II MPS 144193
2005 10 03.48494 08 05 26.32 +23 04 20.9 20.1 V 291 – LPL/Spacewatch II MPS 144193
2005 10 06.45318 08 24 02.45 +24 28 41.3 18.8 V G96 – Mt. Lemmon Survey MPS 144193
2005 10 06.45559 08 24 03.35 +24 28 45.3 18.8 V G96 – Mt. Lemmon Survey MPS 144193
2005 10 06.45801 08 24 04.29 +24 28 49.5 18.7 V G96 – Mt. Lemmon Survey MPS 144193
2005 10 06.46042 08 24 05.20 +24 28 53.5 18.8 V G96 – Mt. Lemmon Survey MPS 144193
2005 10 07.46310 08 30 30.74 +24 55 29.1 19.3 V G96 – Mt. Lemmon Survey MPS 144193
2005 10 07.46601 08 30 31.86 +24 55 33.8 19.5 V G96 – Mt. Lemmon Survey MPS 144193
2005 10 07.46889 08 30 32.97 +24 55 38.3 19.5 V G96 – Mt. Lemmon Survey MPS 144193
2005 10 07.47185 08 30 34.12 +24 55 42.9 19.5 V G96 – Mt. Lemmon Survey MPS 144193
2005 10 12.46983 09 03 28.83 +26 51 08.1 20.0 V 291 – LPL/Spacewatch II MPS 144193
2005 10 12.47413 09 03 30.68 +26 51 13.9 20.2 V 291 – LPL/Spacewatch II MPS 144193
2005 10 12.47829 09 03 32.31 +26 51 19.0 20.1 V 291 – LPL/Spacewatch II MPS 144193
2005 10 13.48745 09 10 19.48 +27 10 44.7 19.2 V G96 – Mt. Lemmon Survey MPS 144193
2005 10 13.48926 09 10 20.20 +27 10 46.6 19.2 V G96 – Mt. Lemmon Survey MPS 144193
2005 10 13.49105 09 10 20.92 +27 10 48.6 19.1 V G96 – Mt. Lemmon Survey MPS 144193
2005 10 13.49286 09 10 21.64 +27 10 50.9 19.2 V G96 – Mt. Lemmon Survey MPS 144193
2005 10 14.42899 09 16 41.29 +27 27 34.7 18.6   704 – Lincoln Laboratory ETS, New Mexico MPS 144193
2005 10 14.44024 09 16 45.77 +27 27 45.9 19.0   704 – Lincoln Laboratory ETS, New Mexico MPS 144193
2005 10 14.45147 09 16 50.29 +27 27 58.9 19.2   704 – Lincoln Laboratory ETS, New Mexico MPS 144193
2005 10 14.46269 09 16 54.85 +27 28 11.1 19.1   704 – Lincoln Laboratory ETS, New Mexico MPS 144193
2005 10 14.47390 09 16 59.34 +27 28 22.6 19.3   704 – Lincoln Laboratory ETS, New Mexico MPS 144193
2005 10 19.59959 09 51 53.13 +28 37 04.9   F65 – Haleakala-Faulkes Telescope North MPS 146159
2005 10 19.60040 09 51 53.52 +28 37 05.7   F65 – Haleakala-Faulkes Telescope North MPS 146159
2005 10 19.60122 09 51 53.83 +28 37 06.3   F65 – Haleakala-Faulkes Telescope North MPS 146159
2005 10 19.60202 09 51 54.21 +28 37 07.1   F65 – Haleakala-Faulkes Telescope North MPS 146159
2005 10 20.46482 09 57 46.58 +28 44 41.5 19.6 V G96 – Mt. Lemmon Survey MPS 146159
2005 10 20.46689 09 57 47.44 +28 44 42.4 19.5 V G96 – Mt. Lemmon Survey MPS 146159
2005 10 20.46898 09 57 48.31 +28 44 43.6 19.8 V G96 – Mt. Lemmon Survey MPS 146159
2005 10 20.47107 09 57 49.17 +28 44 44.9 19.4 V G96 – Mt. Lemmon Survey MPS 146159
2005 11 09.16794 12 01 28.21 +26 54 29.8 19.5 R 461 – University of Szeged, Piszkesteto Stn. (Konkol MPS 149620
2005 11 09.17106 12 01 29.30 +26 54 26.8   461 – University of Szeged, Piszkesteto Stn. (Konkol MPS 149620
2005 12 01.53186 13 44 24.21 +17 59 49.2 19.7 V 703 – Catalina Sky Survey MPS 152130
2005 12 01.53436 13 44 24.82 +17 59 44.8 19.2 V 703 – Catalina Sky Survey MPS 152130
2005 12 01.53689 13 44 25.36 +17 59 41.7 19.4 V 703 – Catalina Sky Survey MPS 152130
2005 12 01.53949 13 44 26.01 +17 59 36.3 19.6 V 703 – Catalina Sky Survey MPS 152130
2006 01 27.52972 16 42 59.22 -09 38 56.9 19.0 V G96 – Mt. Lemmon Survey MPS 160464
2006 01 27.53037 16 42 59.29 -09 38 58.0 19.2 V G96 – Mt. Lemmon Survey MPS 160464
2006 01 27.53102 16 42 59.43 -09 38 58.7 19.4 V G96 – Mt. Lemmon Survey MPS 160464
2006 01 27.53167 16 42 59.54 -09 38 59.9 19.3 V G96 – Mt. Lemmon Survey MPS 160464
2006 06 26.83348 01 34 02.89 -43 29 55.8 19.5 V E12 – Siding Spring Survey MPS 174490
2006 06 26.83436 01 34 03.07 -43 29 56.0 19.2 V E12 – Siding Spring Survey MPS 174490
2006 06 26.83613 01 34 03.32 -43 29 56.6 19.5 V E12 – Siding Spring Survey MPS 174490
2006 06 26.83701 01 34 03.50 -43 29 56.0 20.0 V E12 – Siding Spring Survey MPS 174490
2006 08 26.75250 03 54 07.23 -50 29 44.6 18.9 V E12 – Siding Spring Survey MPS 177075
2006 08 26.76121 03 54 07.77 -50 29 51.1 18.6 V E12 – Siding Spring Survey MPS 177075
2006 08 26.76998 03 54 08.31 -50 29 57.6 18.6 V E12 – Siding Spring Survey MPS 177075
2006 08 26.77858 03 54 08.78 -50 30 04.4 18.7 V E12 – Siding Spring Survey MPS 177075
2006 08 27.66552 03 55 10.99 -50 40 58.5 18.4 V E12 – Siding Spring Survey MPS 177075
2006 08 27.67677 03 55 11.60 -50 41 07.3 18.6 V E12 – Siding Spring Survey MPS 177075
2006 08 27.68802 03 55 12.21 -50 41 16.3 18.8 V E12 – Siding Spring Survey MPS 177075
2006 08 27.69929 03 55 13.00 -50 41 24.9 18.8 V E12 – Siding Spring Survey MPS 177075
2006 09 15.75980 04 04 06.96 -55 25 25.4 18.0 V E12 – Siding Spring Survey MPS 178536
2006 09 15.76774 04 04 06.70 -55 25 33.6 18.1 V E12 – Siding Spring Survey MPS 178536
2006 09 15.77572 04 04 06.45 -55 25 41.9 18.2 V E12 – Siding Spring Survey MPS 178536
2006 09 15.78365 04 04 06.09 -55 25 50.3 18.2 V E12 – Siding Spring Survey MPS 178536
2006 09 15.79163 04 04 05.84 -55 25 58.6 18.0 V E12 – Siding Spring Survey MPS 178536
2006 09 28.61120 03 46 04.99 -59 34 25.1 17.5 R 423 – North Ryde MPS 181115
2006 09 28.64317 03 45 59.13 -59 35 07.6 17.6 R 423 – North Ryde MPS 181115
2006 09 29.29236 03 44 07.26 -59 48 41.5   808 – El Leoncito MPS 182486
2006 09 29.29896 03 44 05.94 -59 48 50.1   808 – El Leoncito MPS 182486
2006 09 29.31076 03 44 03.67 -59 49 04.6   808 – El Leoncito MPS 182486
2006 10 01.59811 03 36 32.22 -60 36 47.6 17.3 R 423 – North Ryde MPS 182749
2006 10 01.61026 03 36 29.33 -60 37 03.7 17.3 R 423 – North Ryde MPS 182749
2006 10 01.62241 03 36 26.39 -60 37 19.7 17.2 R 423 – North Ryde MPS 182749
2006 10 01.63457 03 36 23.45 -60 37 35.9 17.4 R 423 – North Ryde MPS 182749
2006 10 02.29444 03 33 51.69 -60 51 25.8   808 – El Leoncito MPS 182486
2006 10 02.30139 03 33 49.72 -60 51 35.2   808 – El Leoncito MPS 182486
2006 10 02.30914 03 33 47.87 -60 51 44.3   808 – El Leoncito MPS 182486
2006 10 09.63367 02 53 08.73 -63 13 59.4 17.0 V E12 – Siding Spring Survey MPS 182486
2006 10 09.64274 02 53 04.38 -63 14 08.6 17.1 V E12 – Siding Spring Survey MPS 182486
2006 10 09.65186 02 52 59.95 -63 14 17.7 17.1 V E12 – Siding Spring Survey MPS 182486
2006 10 09.66081 02 52 55.63 -63 14 26.4 16.9 V E12 – Siding Spring Survey MPS 182486
2006 10 10.57418 02 45 48.91 -63 28 48.1 17.1 R 423 – North Ryde MPS 182486
2006 10 10.58634 02 45 42.56 -63 29 00.0 17.1 R 423 – North Ryde MPS 182486
2006 10 10.59849 02 45 36.28 -63 29 11.7 17.3 R 423 – North Ryde MPS 182486
2006 10 10.61064 02 45 29.98 -63 29 23.2 17.0 R 423 – North Ryde MPS 182486
2006 10 10.62280 02 45 23.65 -63 29 34.4 17.0 R 423 – North Ryde MPS 182486
